Theta_e
334 337 337 335 331 328 327 311 318 318 321 323 326 320 317 322 324 328 327 327 328 327 323 320 317 321 326 327 326 327 328 330 330 329 328 325 323 321 319 316 316 317 318
333 336 337 332 329 324 327 310 315 320 325 323 322 324 324 324 329 329 327 325 325 323 324 322 316 319 325 326 325 327 327 329 328 327 325 323 322 318 310 310 313 317 317
333 336 336 330 328 323 326 310 314 325 324 323 325 327 322 321 323 326 325 324 326 325 323 326 321 317 325 325 325 327 328 328 327 325 323 321 317 313 307 306 316 316 316
331 332 336 332 327 325 327 310 314 323 325 327 328 326 321 321 326 325 323 326 326 327 321 322 320 316 323 322 322 327 328 327 327 325 322 320 315 308 306 309 308 314 315
329 331 336 334 329 328 329 312 310 322 329 329 326 326 325 322 324 325 323 326 326 324 319 320 320 319 321 323 325 327 327 326 325 323 322 319 317 314 306 304 305 312 313
330 331 334 335 332 332 330 314 310 325 326 316 324 323 325 324 323 321 319 326 328 321 319 319 319 321 323 325 326 327 326 325 323 322 322 320 318 312 313 306 306 313 311
330 331 332 335 333 333 332 314 311 326 327 327 318 324 326 325 322 316 323 328 326 321 319 319 318 319 321 323 326 326 325 323 323 323 322 321 319 313 314 310 313 310 310
329 334 331 334 333 333 332 313 315 328 325 321 317 319 324 323 319 322 323 325 325 322 320 319 318 318 320 323 324 325 325 324 323 322 322 321 319 313 314 311 312 309 310
330 331 331 331 332 333 331 313 323 329 322 316 312 313 318 317 317 319 321 325 324 323 321 320 317 317 318 322 323 324 326 324 323 322 321 320 319 313 313 312 312 308 308
328 329 331 328 332 333 328 315 324 326 325 314 312 322 319 323 317 319 322 325 324 323 321 320 317 317 319 320 324 322 323 324 322 321 321 319 319 314 312 312 311 308 309
329 329 328 327 333 333 326 316 326 327 325 314 313 316 322 320 316 320 323 323 321 322 321 319 317 315 319 322 322 320 321 322 321 321 319 319 318 311 312 312 310 307 310
332 332 327 329 334 333 323 315 326 327 326 320 313 311 319 316 316 322 325 321 319 321 321 320 318 317 318 318 320 320 320 320 320 320 319 318 317 309 311 311 310 309 309
333 330 327 333 333 333 321 316 326 327 326 326 315 312 315 315 319 323 322 321 318 320 321 320 319 317 316 318 317 319 319 319 319 318 317 316 315 306 311 311 310 309 308
332 333 327 335 332 332 320 316 326 327 326 325 322 315 317 318 321 322 324 322 319 318 319 320 319 318 316 316 316 316 317 318 318 317 316 315 313 307 311 314 312 311 308
334 333 333 333 332 332 323 316 325 327 325 326 320 320 320 322 321 319 321 323 320 317 315 314 314 317 318 317 316 315 315 314 317 316 315 314 312 306 311 311 312 311 307
333 334 333 333 332 331 327 323 322 326 325 326 324 320 322 322 323 320 319 320 320 319 318 315 315 315 318 318 317 315 314 313 311 312 313 313 309 302 308 311 309 310 308
331 333 333 333 333 330 329 329 326 325 325 326 325 320 320 321 319 322 322 320 320 321 321 319 316 313 314 313 313 313 313 313 310 308 310 310 303 300 300 302 306 309 307
331 331 333 333 333 330 330 329 328 327 326 326 326 325 320 318 319 322 322 321 319 318 319 318 313 314 313 313 312 312 312 312 310 307 305 305 301 299 299 298 299 299 300
331 331 331 332 332 330 329 329 328 327 326 325 327 326 323 317 322 322 322 322 320 319 320 316 314 314 313 313 311 311 311 312 310 307 304 302 300 299 298 298 298 298 298
331 331 331 331 331 330 329 328 327 327 327 326 326 325 322 317 322 322 322 322 323 322 322 317 314 314 313 311 311 310 310 311 310 307 304 302 301 299 298 298 298 298 297
330 331 331 331 330 330 329 327 326 326 326 326 325 323 322 318 320 323 322 322 322 322 322 319 316 313 312 311 310 309 309 310 309 308 305 304 302 301 299 298 298 297 297
326 324 329 330 330 329 329 327 326 326 325 324 324 323 321 320 319 323 323 322 322 322 323 321 317 314 314 312 310 309 308 308 308 308 306 305 303 302 300 299 299 298 297
327 327 325 327 329 329 329 329 327 326 325 324 324 323 321 321 317 318 321 323 323 322 324 321 318 317 314 314 312 308 307 307 308 308 307 306 304 303 302 300 299 298 297
326 326 326 325 327 329 329 328 328 327 326 326 324 322 320 319 318 316 318 319 322 323 323 321 319 319 318 315 314 312 308 309 308 308 308 307 305 304 303 301 299 299 299
319 324 326 325 326 327 329 329 328 327 327 326 326 326 322 320 320 319 317 317 318 324 324 324 320 319 319 319 319 316 313 309 308 309 309 309 307 306 305 303 301 300 300
311 314 322 326 326 327 328 328 328 327 327 326 326 326 325 323 321 320 320 320 320 317 320 324 323 320 320 320 320 320 319 315 313 310 309 310 309 308 307 304 303 302 301
Wind_Speed
24 26 24 20 17 18 15 14 19 18 19 19 18 15 15 18 18 20 18 18 18 18 16 16 17 19 18 19 19 20 21 24 25 22 20 20 19 19 19 19 19 20 21
28 27 24 20 17 18 14 14 19 19 19 18 17 18 17 17 18 20 17 17 18 15 15 16 16 19 20 20 19 19 20 20 18 18 17 20 20 19 19 19 20 21 22
28 28 24 20 18 18 14 13 19 20 19 17 17 18 15 16 18 20 15 17 18 16 16 18 17 21 21 21 19 19 19 18 16 15 15 20 20 19 18 18 19 22 20
29 29 25 21 20 19 15 13 18 20 19 19 18 15 13 17 21 17 17 19 17 16 18 19 19 21 21 19 18 18 19 17 12 12 16 19 21 20 19 18 18 20 21
31 29 26 22 20 18 15 13 15 20 19 18 20 16 15 15 20 17 16 18 17 14 18 20 21 22 21 19 18 18 17 13 9 12 13 17 21 19 18 17 18 19 20
31 29 26 23 20 18 15 13 15 21 18 15 16 20 17 15 16 14 15 18 17 15 18 19 20 21 20 19 18 18 15 10 9 12 16 17 18 19 18 18 19 19 19
33 29 27 24 21 19 16 13 16 21 19 18 15 20 17 16 13 15 19 17 16 17 18 18 19 19 18 18 19 16 12 9 11 13 14 13 16 18 18 17 19 17 17
30 27 26 25 21 18 16 13 16 21 17 14 16 19 17 14 12 20 18 17 16 16 17 16 17 17 17 16 16 14 11 13 10 13 12 11 14 17 16 16 17 16 17
26 25 27 25 22 18 16 15 18 21 14 11 14 17 15 14 16 18 17 17 15 15 15 15 15 16 16 18 15 14 13 14 12 11 7 10 9 14 15 16 15 16 16
23 24 28 26 24 21 18 16 20 18 14 13 15 15 16 17 16 18 17 16 14 14 13 12 14 15 16 16 17 13 12 13 11 9 9 7 7 12 14 14 15 15 17
25 22 27 27 25 22 19 19 20 17 14 13 13 16 17 16 17 17 16 16 15 14 13 13 15 16 14 15 13 12 11 11 11 10 10 5 6 10 13 14 12 14 15
26 23 30 29 28 25 22 22 22 21 17 13 12 14 17 17 18 18 17 14 15 15 13 13 15 16 15 14 15 13 12 11 11 11 9 5 5 7 11 12 11 13 12
19 21 29 29 28 26 24 25 24 23 18 14 12 15 18 18 18 17 17 14 13 14 14 14 14 15 15 13 11 14 12 11 11 11 10 6 3 5 10 10 11 11 11
25 25 26 29 28 26 24 27 26 24 22 17 15 17 17 17 17 16 17 15 13 14 14 14 13 12 14 13 13 13 15 13 13 10 8 7 1 4 9 9 9 10 9
30 29 29 29 28 27 24 27 26 23 22 20 17 19 18 17 15 13 16 15 15 14 14 15 13 14 12 12 12 13 14 13 15 13 11 7 4 3 8 8 7 7 8
29 30 29 30 29 26 24 23 28 25 25 23 19 23 20 18 17 15 15 17 17 13 13 12 11 13 14 13 13 14 14 13 12 14 11 10 8 6 6 8 6 4 4
32 30 31 31 32 28 25 25 26 27 27 25 23 23 23 22 19 17 15 15 17 17 15 14 14 13 14 13 13 14 14 13 11 11 13 13 11 9 8 6 5 6 2
27 36 32 33 31 32 31 28 25 27 28 29 27 23 25 23 22 19 16 15 17 18 18 16 14 13 12 12 13 15 15 14 12 12 14 15 13 12 10 9 7 7 6
30 30 38 35 34 34 34 32 27 26 25 31 30 26 24 25 24 22 20 20 19 20 19 17 15 14 13 14 14 14 15 15 14 14 15 15 15 14 13 12 10 9 8
33 32 31 38 36 33 33 31 31 27 26 28 30 29 26 28 26 25 24 24 25 22 21 19 17 17 15 14 15 15 15 16 17 16 17 18 18 16 15 14 13 12 11
35 35 34 37 38 40 37 34 35 38 35 34 33 31 29 28 30 29 28 26 26 26 23 21 19 19 19 18 16 17 17 18 19 19 19 20 21 19 19 17 15 15 14
33 30 33 35 37 40 42 39 38 37 37 35 33 33 32 30 33 31 32 31 28 26 27 26 24 24 23 21 20 16 11 19 23 23 22 22 22 23 22 21 19 18 17
34 34 31 32 35 37 38 44 40 36 34 35 36 34 33 33 33 37 35 33 32 30 30 30 28 28 26 25 23 15 10 11 14 23 26 25 24 25 24 24 22 21 19
32 31 29 30 34 37 35 40 48 44 41 41 39 37 34 35 35 37 40 37 35 34 34 32 31 31 29 29 26 28 24 14 11 9 19 24 27 27 26 26 26 24 23
24 30 31 32 33 37 40 41 46 51 32 42 41 40 37 36 37 37 39 40 38 38 37 35 35 34 34 32 31 29 30 29 24 22 18 20 23 25 27 29 28 27 26
19 25 31 33 35 37 38 42 44 41 36 38 44 41 42 40 39 40 39 41 41 40 40 40 38 37 37 36 34 35 34 35 34 31 28 28 25 23 24 26 30 31 28
Wind_Direction
169 163 162 157 152 147 138 128 129 125 119 122 119 120 126 115 113 110 112 105 100 99 99 105 116 115 112 109 104 104 108 111 109 102 96 91 79 75 70 67 70 70 72
162 169 165 162 159 150 137 134 131 127 124 118 115 113 111 112 114 112 111 104 107 94 96 102 116 119 116 113 106 107 114 116 105 101 94 86 84 73 70 71 70 72 71
168 171 166 162 161 155 138 137 136 130 125 121 120 114 100 106 114 105 110 108 104 105 98 100 105 122 116 113 108 109 114 114 109 96 81 83 76 71 68 68 72 73 71
173 170 167 164 160 152 140 137 139 134 130 126 117 121 104 108 114 121 112 115 114 107 104 103 103 114 119 116 113 117 118 110 101 88 87 83 78 71 66 69 69 76 75
174 169 167 165 155 152 145 141 146 139 136 130 128 134 124 111 122 123 130 123 121 111 107 106 106 112 120 122 121 124 121 116 103 86 81 89 77 70 68 67 72 75 72
176 171 170 166 158 154 154 148 150 141 137 132 136 136 137 128 135 138 135 127 128 117 106 109 111 117 123 120 121 124 121 119 105 87 87 77 65 69 71 66 72 74 70
176 172 171 169 166 163 161 156 153 145 150 144 142 137 143 149 139 134 135 134 137 118 110 110 116 122 126 123 123 123 120 121 112 105 92 70 72 67 79 70 79 70 68
171 172 174 173 170 167 165 162 153 148 152 150 145 146 150 151 147 144 143 140 136 126 118 113 115 124 130 129 125 117 133 134 113 119 94 71 68 67 76 74 79 71 68
174 174 178 176 174 171 170 164 154 161 156 146 146 146 151 142 137 145 147 146 139 135 126 117 115 129 133 133 132 142 145 130 126 111 97 86 59 59 86 83 81 70 66
183 182 181 177 174 173 174 169 160 163 158 150 150 147 146 146 147 147 149 153 144 139 132 123 121 130 140 140 134 146 147 135 139 139 114 89 53 62 91 87 82 69 70
185 193 188 178 180 178 179 173 167 167 168 155 152 156 154 156 155 153 156 158 153 148 141 132 127 128 142 147 139 144 152 158 150 144 127 101 61 59 96 92 81 74 73
186 193 192 179 183 183 184 180 174 174 177 167 164 164 164 167 164 162 166 168 163 157 154 147 142 140 148 154 148 145 161 167 167 153 131 114 56 58 94 95 82 79 76
190 190 187 184 189 191 190 184 184 182 186 184 174 169 173 174 170 176 176 178 171 163 166 162 161 162 158 161 169 154 162 178 178 168 128 106 32 58 101 102 97 81 75
199 201 192 190 194 199 196 190 190 187 191 192 187 181 177 182 181 186 189 186 172 167 172 177 183 178 172 167 183 187 180 178 186 180 164 147 157 85 111 105 106 102 72
196 201 197 199 200 205 198 197 195 192 196 197 190 187 189 197 197 199 195 188 180 173 180 187 195 184 184 184 185 197 201 195 192 181 184 185 232 155 128 118 117 107 80
197 202 203 203 205 205 207 203 201 195 201 202 196 193 198 207 212 204 198 197 195 185 188 193 200 202 195 198 201 209 214 216 204 215 213 215 217 210 165 145 123 151 114
203 206 203 206 199 203 209 211 210 201 207 208 205 205 207 212 212 201 196 193 202 182 186 198 208 201 204 205 207 211 218 223 220 220 217 216 215 222 224 216 171 171 171
208 208 206 201 200 204 205 208 212 210 213 211 208 212 214 208 208 203 204 201 202 202 192 200 203 210 213 215 214 209 213 224 227 225 224 219 222 227 232 236 237 241 259
218 208 212 209 206 209 213 218 217 215 216 213 214 222 219 210 205 210 208 200 197 196 196 207 211 218 224 219 216 213 215 220 228 232 230 225 229 233 238 240 240 244 251
220 217 212 215 214 207 213 215 213 214 218 217 223 229 223 212 206 206 208 204 202 208 203 215 212 217 224 228 220 219 222 225 229 231 233 235 235 233 237 241 242 244 247
215 220 214 212 215 218 211 210 213 215 216 221 227 230 228 217 207 209 210 212 210 217 218 221 215 217 218 219 219 221 226 227 232 233 234 236 240 238 237 240 240 243 245
213 220 221 217 218 217 220 214 214 219 221 226 230 232 230 223 212 209 215 216 219 221 221 224 222 219 221 225 221 220 229 236 238 236 237 239 240 241 240 240 240 241 243
218 220 226 226 223 218 218 221 220 221 226 227 230 233 231 229 218 218 219 220 222 226 228 225 223 227 229 228 224 219 211 221 232 237 240 241 241 243 243 242 242 242 243
232 231 233 236 231 223 220 225 223 225 224 230 232 235 235 233 226 221 225 228 226 227 230 232 228 231 235 236 231 227 231 236 224 234 238 241 243 242 242 243 242 242 245
250 246 242 240 239 233 227 223 223 224 234 236 238 241 238 235 234 229 227 230 230 228 232 237 233 232 237 239 240 239 236 239 241 243 248 246 243 246 242 242 242 241 244
263 251 244 245 242 238 233 227 222 221 226 236 236 239 240 238 235 234 234 234 236 237 236 238 241 241 242 243 244 246 244 240 243 241 243 253 256 256 253 246 243 241 240